This is the latest recevied weather packets stored in our database for station/object FW9167. If no packets are shown the sender has not sent any weather packets the latest 10 day(s).
| Time | Temp. | Humidity | Pressure | Rain* | Wind** | Luminosity | Snow |
|---|---|---|---|---|---|---|---|
| 1778292065 | 21.67° C | 28% | 1015.8 hPa | 0 mm | - | - | - |
| 1778289364 | 22.22° C | 25% | 1015.6 hPa | 0 mm | - | - | - |
| 1778286663 | 22.78° C | 21% | 1015.8 hPa | 0 mm | - | - | - |
| 1778282162 | 22.78° C | 24% | 1015.8 hPa | 0 mm | - | - | - |
| 1778274062 | 22.78° C | 27% | 1016 hPa | 0 mm | - | - | - |
| 1778272262 | 21.67° C | 27% | 1016.5 hPa | 0 mm | - | - | - |
| 1778269562 | 22.22° C | 37% | 1016.6 hPa | 0 mm | - | - | - |
| 1778261462 | 17.78° C | 41% | 1017.4 hPa | 0 mm | - | - | - |
| 1778255161 | 13.89° C | 54% | 1017.6 hPa | 0 mm | - | - | - |
| 1778253362 | 13.89° C | 54% | 1017.7 hPa | 0 mm | - | - | - |
| 1778252462 | 13.33° C | 59% | 1017.6 hPa | 0 mm | - | - | - |
| 1778247962 | 9.44° C | 62% | 1017.4 hPa | 0 mm | - | - | - |
| 1778246162 | 6.11° C | 70% | 1017.2 hPa | 0 mm | - | - | - |
| 1778239862 | 4.44° C | 73% | 1016.7 hPa | 0 mm | - | - | - |
| 1778238063 | 5.56° C | 69% | 1016.6 hPa | 0 mm | - | - | - |
| 1778237162 | 5.56° C | 69% | 1016.6 hPa | 0 mm | - | - | - |
| 1778235362 | 6.11° C | 68% | 1016.3 hPa | 0 mm | - | - | - |
| 1778232662 | 9.44° C | 57% | 1016.1 hPa | 0 mm | - | - | - |
| 1778231762 | 9.44° C | 57% | 1016 hPa | 0 mm | - | - | - |
| 1778229962 | 10.56° C | 54% | 1016 hPa | 0 mm | - | - | - |
| 1778223662 | 12.22° C | 50% | 1015.9 hPa | 0 mm | - | - | - |
| 1778210163 | 15.56° C | 46% | 1014.4 hPa | 0 mm | - | - | - |
| 1778209263 | 17.22° C | 45% | 1014.2 hPa | 0 mm | - | - | - |
| 1778206565 | 21.67° C | 31% | 1013.7 hPa | 0 mm | - | - | - |
| 1778201162 | 23.89° C | 24% | 1013.2 hPa | 0 mm | - | - | - |
* Rain since midnight (hover to see other rain measurements)
** Current wind speed in m/s (hover to see current wind gust speed)